Home   Weather   Ashdod   Past weeks

Flag for Israel Past Weather in Ashdod, Israel — Yesterday and Last 2 Weeks

Now
48 °F

Passing clouds.


Feels Like: 48 °F
Forecast: 50 / 67 °F
Wind: 2 mph from North

Location: Ben Gurion International Airport

Current Time: Feb 23, 2017 at 2:33:54 am

Latest Report: Feb 23, 2017 at 1:50 am


Visibility: N/A

Pressure: 30.09 "Hg

Humidity: 82%

Dew Point: 43 °F

Location of AshdodLocation

Past Weather in Ashdod — Graph

°F

Ashdod Temperature Yesterday

Maximum temperature yesterday: 61 °F (at 9:50 am)
Minimum temperature yesterday: 43 °F (at 5:20 am)
Average temperature yesterday: 53 °F

High & Low Weather Summary for the Past Weeks

 TemperatureHumidityPressure
High72 °F (Feb 8, 1:20 pm)94% (Feb 9, 12:20 am)30.39 "Hg (Feb 9, 12:20 am)
Low39 °F (Feb 19, 5:50 am)13% (Feb 19, 11:20 am)29.83 "Hg (Feb 8, 2:50 am)
Average54 °F68%30.08 "Hg
* Reported Feb 8 1:20 am — Feb 23 1:20 am, Ashdod, Weather by CustomWeather, © 2017

Note: Actual official high and low records may vary slightly from our data, if they occured in-between our weather recording intervals... More about our weather records

Advertising

Ashdod Weather History for the Previous 24 Hours

Scroll right to see more
 ConditionsComfort  
Time TempWeatherWind HumidityBarometerVisibility
1:20 am
Thu, Feb 23
48 °FPassing clouds.2 mph82%30.09 "HgN/A
12:50 am48 °FClear.5 mph82%30.09 "Hg10 mi
12:20 am50 °FClear.3 mph82%30.09 "Hg10 mi
11:50 pm
Wed, Feb 22
52 °FClear.3 mph77%30.09 "Hg10 mi
11:20 pm52 °FClear.2 mph77%30.09 "Hg10 mi
10:50 pm52 °FPassing clouds.3 mph77%30.09 "HgN/A
10:20 pm54 °FPassing clouds.5 mph72%30.09 "HgN/A
9:50 pm54 °FPassing clouds.5 mph72%30.09 "HgN/A
9:20 pm54 °FPassing clouds.3 mph77%30.09 "HgN/A
8:50 pm55 °FClear.5 mph72%30.09 "Hg10 mi
8:20 pm55 °FClear.5 mph72%30.09 "Hg10 mi
7:50 pm57 °FPassing clouds.2 mph67%30.07 "HgN/A
7:20 pm57 °FPassing clouds.1 mph67%30.07 "HgN/A
6:50 pm55 °FPassing clouds.2 mph72%30.07 "HgN/A
6:20 pm59 °FClear.1 mph59%30.04 "Hg10 mi
5:50 pm59 °FPassing clouds.6 mph59%30.04 "HgN/A
5:20 pm59 °FPassing clouds.6 mph59%30.04 "HgN/A
4:50 pm59 °FPassing clouds.5 mph59%30.04 "HgN/A
4:20 pm59 °FSunny.7 mph59%30.04 "Hg10 mi
3:50 pm59 °FSunny.6 mph59%30.04 "Hg10 mi
3:20 pm59 °FSunny.7 mph55%30.01 "Hg10 mi
2:50 pm59 °FSunny.6 mph55%30.01 "Hg10 mi
2:20 pm59 °FSunny.6 mph55%30.01 "Hg10 mi
1:50 pm59 °FSunny.7 mph55%30.01 "Hg10 mi
1:20 pm59 °FSunny.9 mph51%30.01 "Hg10 mi
12:50 pm59 °FSunny.9 mph45%30.01 "Hg10 mi
12:20 pm61 °FSunny.9 mph48%30.01 "Hg10 mi
11:50 am61 °FSunny.8 mph48%30.01 "Hg10 mi
11:20 am61 °FSunny.8 mph52%30.01 "Hg10 mi
10:50 am61 °FSunny.8 mph48%30.01 "Hg10 mi
10:20 am61 °FSunny.3 mph45%30.01 "Hg10 mi
9:50 am61 °FSunny.7 mph42%30.01 "Hg10 mi
9:20 am57 °FSunny.2 mph63%30.04 "Hg10 mi
8:50 am54 °FSunny.1 mph67%30.04 "Hg10 mi
8:20 am50 °FSunny.2 mph71%30.04 "Hg10 mi
7:50 am48 °FSunny.2 mph71%30.04 "Hg10 mi
7:20 am46 °FSunny.2 mph76%30.04 "Hg10 mi
6:50 am45 °FSunny.3 mph81%30.04 "Hg10 mi
6:20 am43 °FSunny.3 mph87%30.04 "Hg10 mi
5:50 am45 °FClear.3 mph81%30.04 "Hg10 mi
5:20 am43 °FClear.3 mph87%30.04 "Hg10 mi
4:50 am45 °FClear.1 mph87%30.04 "Hg10 mi
4:20 am45 °FClear.1 mph87%30.04 "Hg10 mi
3:50 am46 °FClear.5 mph82%30.04 "Hg10 mi
3:20 am46 °FClear.3 mph82%30.04 "Hg10 mi
2:50 am46 °FClear.1 mph82%30.04 "Hg10 mi
2:20 am46 °FClear.1 mph82%30.04 "Hg10 mi
Weather by CustomWeather, © 2017

See weather overviewHow to use our weather pages